[[{"header":{"parameterUnit":"m.s-1","parameterCategory":1,"la1":30.2991,"la2":30.254,"lo1":-89.0895,"lo2":-89.0444,"dy":0.0017,"dx":0.0017,"nx":28,"ny":28,"refTime":"2024-05-15T09:00:00:Z","depth":0,"parameterNumber":2,"parameterNumberName":"U-component_of_WINDS"},"data":[0,0,0,0,0,0,0,0,0,0,0,0,0,0,0,0,0,0,0,0,0,0,0,0,0,0,0,0,0,0,0,0,0,0,0,0,0,0,0,0,0,0,0,0,0,0,0,0,0,0,0,0,0,0,0,0,0,0,4.3004,4.3006,0,4.3175,4.3177,4.3179,4.3064,4.3059,4.3053,4.3048,4.3227,4.3236,4.3246,0,0,0,0,0,0,0,0,0,0,0,0,0,4.2581,4.2589,4.3004,4.3006,4.3008,4.3175,4.3177,4.3179,4.3065,4.3058,4.3052,4.3046,4.3224,4.3235,4.3247,0,0,0,0,0,0,0,0,0,0,0,0,0,4.276,4.2592,4.3003,4.2971,4.297,4.3174,4.3177,4.318,4.3066,4.3058,4.305,4.3043,4.322,4.3234,4.3248,4.3495,0,0,4.3293,4.3299,0,0,0,0,0,0,0,0,4.275,4.2775,4.2973,4.2973,4.2972,4.309,4.3093,4.3286,4.3068,4.303,4.3048,4.3039,4.3188,4.3205,4.3254,4.3504,4.3511,4.3294,4.3303,4.3309,4.3313,0,0,0,0,0,0,0,4.2737,4.2767,4.3071,4.2976,4.2976,4.2949,4.2965,4.3129,4.3151,4.3032,4.3024,4.3046,4.3186,4.324,4.3257,4.3514,4.3294,4.3306,4.3315,4.3321,4.3975,4.3984,0,0,0,0,0,0,4.2727,4.2758,4.3066,4.3076,4.2839,4.2963,4.2981,4.306,4.3149,4.3155,4.3053,4.304,4.322,4.3241,4.3263,4.3559,4.3309,4.3322,4.3331,4.3967,4.3977,4.3987,0,0,0,0,0,0,4.2719,4.2756,4.3059,4.2915,4.2951,4.2978,4.3068,4.3068,4.3122,4.3164,4.3168,4.3104,4.3214,4.3243,4.3438,4.3563,4.3329,4.3342,4.3957,4.397,4.3982,4.4152,0,0,0,0,0,0,4.2707,4.2753,4.2847,4.2918,4.296,4.3231,4.3075,4.3077,4.3147,4.3132,4.3213,4.3219,4.321,4.3417,4.3453,4.3579,4.3353,4.3945,4.3963,4.3978,4.4135,4.4169,4.4198,0,0,0,0,0,4.2692,4.2888,4.2852,4.289,4.3077,4.3238,4.3262,4.3247,4.3157,4.3252,4.3279,4.3217,4.3544,4.3438,4.3477,4.361,4.3938,4.3958,4.3977,4.4121,4.4162,4.4197,0,0,0,0,0,0,4.2833,4.2897,4.2858,4.3083,4.3156,4.3219,4.3338,4.3291,4.3393,4.3375,4.3352,4.3372,4.3577,4.3612,4.3494,4.3854,4.3727,4.3755,4.3823,4.3863,4.3893,4.3881,4.3365,0,0,0,0,0,4.2889,4.3014,4.3064,4.3258,4.3297,4.3311,4.3381,4.3363,4.3438,4.3469,4.351,4.3587,4.3707,4.3786,4.3899,4.4139,4.4156,4.425,4.4281,4.4306,4.4332,4.4462,4.4505,4.4051,4.4051,4.4051,0,0,4.3009,4.3059,4.314,4.3287,4.3342,4.3473,4.3338,4.3482,4.3579,4.3491,4.3678,4.3712,4.3795,4.4015,4.4113,4.4051,4.446,4.4331,4.4352,4.4363,4.4487,4.453,4.4568,4.4064,4.4062,4.406,0,0,4.3293,4.3344,4.3511,4.3568,4.3652,4.366,4.3701,4.3771,4.3789,4.3976,4.3913,4.4029,4.4236,4.4298,4.4357,4.4665,4.4612,4.4702,4.4867,4.4995,4.503,4.5062,4.5173,4.5213,4.4727,4.4728,4.4728,0,4.3431,4.3625,4.3603,4.3752,4.3819,4.3744,4.3914,4.3971,4.4088,4.4137,4.4064,4.4323,4.4374,4.4607,4.4682,4.4732,4.4778,4.4694,4.5027,4.5058,4.5087,4.5193,4.5235,4.4738,4.4737,4.4736,4.4735,0,4.3791,4.3926,4.4051,4.4165,4.4246,4.4405,4.4408,4.4493,4.4468,4.4484,4.4676,4.4735,4.4858,4.4912,4.4889,4.5143,4.5101,4.5029,4.4901,4.5142,4.524,4.5281,4.4753,4.4749,4.4746,4.4744,0,0,4.4169,4.4269,4.4315,4.4366,4.4453,4.4558,4.4714,4.4833,4.4907,4.499,4.5121,4.5298,4.5231,4.5298,4.5281,4.5393,4.5635,4.5307,4.5308,4.5367,4.5919,4.5973,4.6021,4.5599,4.5607,4.5613,4.5912,0,4.4459,4.473,4.4714,4.4969,4.5094,4.5024,4.516,4.5229,4.5248,4.5358,4.5379,4.5506,4.5407,4.5447,4.5555,4.5583,4.5745,4.5561,4.5722,4.5728,4.5704,4.6072,4.6131,4.641,4.595,4.5957,4.5961,0,4.4834,4.4929,4.5196,4.5264,4.5316,4.5438,4.5547,4.5652,4.5729,4.5735,4.5811,4.5776,4.5934,4.5801,4.602,4.5894,4.5959,4.5983,4.5993,4.6009,4.586,4.6099,4.6498,4.6541,4.6022,4.6017,4.6013,0,4.5084,4.5279,4.5464,4.551,4.5594,4.5682,4.5721,4.579,4.5863,4.5958,4.6005,4.6118,4.6181,4.6269,4.6266,4.617,4.6488,4.6355,4.6499,4.65,4.657,4.6566,4.6988,4.6611,4.661,4.6609,4.6608,0,4.541,4.5577,4.5578,4.5692,4.5876,4.5857,4.6041,4.6071,4.6133,4.6252,4.6198,4.6312,4.63,4.6415,4.6413,4.6595,4.6623,4.6634,4.6632,4.6639,4.6638,4.6683,4.6663,4.662,4.6618,4.6616,4.6614,0,4.5722,4.5729,4.5926,4.599,4.6009,4.6143,4.6197,4.6306,4.632,4.6472,4.6506,4.653,4.6662,4.6667,4.6819,4.6818,4.704,4.7016,4.7014,4.701,4.7154,4.7141,4.762,4.7682,4.7264,4.7268,4.7271,0,4.593,4.6056,4.6133,4.6208,4.6253,4.6375,4.6449,4.6436,4.6515,4.6612,4.671,4.6836,4.6937,4.7151,4.7183,4.7299,4.7278,4.7437,4.7295,4.7299,4.7281,4.7274,4.7287,4.7466,4.747,4.7474,4.7477,0,4.6299,4.6296,4.6404,4.6515,4.6604,4.6691,4.6771,4.6836,4.6832,4.6924,4.7058,4.7136,4.7291,4.7418,4.7531,4.7572,4.7526,4.7521,4.7561,4.7571,4.7565,4.7571,4.7091,4.7511,4.7507,4.7505,4.7503,4.7502,4.6566,4.6675,4.6746,4.6869,4.6927,4.7003,4.7108,4.7136,4.7247,4.7371,4.7356,4.7506,4.7579,4.7726,4.7777,4.7894,4.7839,4.7896,4.7911,4.7926,4.7942,4.7546,4.7914,4.7913,4.7912,4.7911,4.7911,0,4.6933,4.6975,4.7088,4.7201,4.7298,4.7243,4.7329,4.7414,4.7546,4.7618,4.7718,4.7873,4.7995,4.8036,4.8155,4.8241,4.8223,4.8273,4.8267,4.8278,4.7983,4.7937,4.8286,4.8286,4.8286,4.8286,4.8286,4.8286,4.7135,4.7317,4.7323,4.7533,4.7574,4.7719,4.7773,4.7844,4.7901,4.8076,4.8177,4.8202,4.8262,4.8385,4.8496,4.8505,4.8552,4.8612,4.8612,4.8336,4.8299,4.8263,4.8219,4.8622,4.8622,4.8897,4.8899,4.8901]},{"header":{"parameterUnit":"m.s-1","parameterCategory":1,"la1":30.2991,"la2":30.254,"lo1":-89.0895,"lo2":-89.0444,"dy":0.0017,"dx":0.0017,"nx":28,"ny":28,"refTime":"2024-05-15T09:00:00:Z","depth":0,"parameterNumber":3,"parameterNumberName":"V-component_of_WINDS"},"data":[0,0,0,0,0,0,0,0,0,0,0,0,0,0,0,0,0,0,0,0,0,0,0,0,0,0,0,0,0,0,0,0,0,0,0,0,0,0,0,0,0,0,0,0,0,0,0,0,0,0,0,0,0,0,0,0,0,0,2.0937,2.094,0,2.1161,2.1164,2.1166,2.1147,2.1143,2.114,2.1137,2.1374,2.1383,2.1392,0,0,0,0,0,0,0,0,0,0,0,0,0,2.0498,2.0506,2.0937,2.094,2.0943,2.1161,2.1164,2.1167,2.1147,2.1143,2.1139,2.1135,2.1371,2.1382,2.1393,0,0,0,0,0,0,0,0,0,0,0,0,0,2.0702,2.0509,2.0936,2.0959,2.0963,2.116,2.1164,2.1168,2.1148,2.1143,2.1138,2.1133,2.1367,2.1381,2.1395,2.1586,0,0,2.1438,2.1445,0,0,0,0,0,0,0,0,2.0691,2.0718,2.0953,2.0958,2.0963,2.112,2.1096,2.1308,2.115,2.1078,2.1137,2.1131,2.1294,2.1314,2.1368,2.1597,2.1607,2.144,2.1448,2.1454,2.1458,0,0,0,0,0,0,0,2.0677,2.0709,2.1026,2.0956,2.0962,2.096,2.0983,2.1136,2.1213,2.1084,2.1083,2.111,2.1296,2.1354,2.1373,2.1611,2.1439,2.1452,2.1461,2.1466,2.2008,2.2014,0,0,0,0,0,0,2.0656,2.0697,2.1019,2.1033,2.0811,2.0972,2.0998,2.1075,2.1211,2.1226,2.1114,2.1108,2.1332,2.1356,2.1381,2.1615,2.1454,2.1468,2.1476,2.2002,2.2009,2.2016,0,0,0,0,0,0,2.0647,2.0685,2.101,2.0865,2.0906,2.0985,2.1072,2.1082,2.114,2.1233,2.1247,2.1159,2.1329,2.1361,2.1535,2.1623,2.1474,2.1487,2.1995,2.2004,2.2013,2.2082,0,0,0,0,0,0,2.0634,2.0682,2.0754,2.0866,2.0913,2.1158,2.1077,2.1091,2.1164,2.1159,2.1279,2.1294,2.1327,2.1513,2.1549,2.164,2.1498,2.1988,2.1999,2.201,2.2073,2.2092,2.2109,0,0,0,0,0,2.0619,2.0767,2.0758,2.0797,2.1005,2.1163,2.119,2.1223,2.1171,2.1246,2.1305,2.129,2.1606,2.1531,2.1571,2.1667,2.1983,2.1996,2.2009,2.2064,2.2088,2.2109,0,0,0,0,0,0,2.0667,2.0782,2.0774,2.0962,2.1052,2.1159,2.1255,2.1248,2.1357,2.1348,2.1386,2.1414,2.1588,2.1645,2.1559,2.1859,2.1788,2.181,2.1816,2.184,2.1858,2.1842,2.151,0,0,0,0,0,2.0698,2.0815,2.091,2.1067,2.1113,2.1175,2.1246,2.1263,2.1359,2.1398,2.147,2.1566,2.1687,2.1766,2.1883,2.2079,2.2106,2.2165,2.2183,2.2198,2.2217,2.2326,2.2353,2.2059,2.2059,2.2058,0,0,2.0767,2.0844,2.0916,2.1079,2.1151,2.1272,2.1208,2.134,2.1431,2.1419,2.1587,2.1643,2.1752,2.1938,2.2024,2.1991,2.2304,2.2215,2.2225,2.2237,2.2342,2.237,2.2394,2.2068,2.2066,2.2065,0,0,2.0954,2.1023,2.1162,2.1234,2.1343,2.1383,2.1416,2.1524,2.156,2.1727,2.1721,2.183,2.2038,2.2116,2.2183,2.2396,2.2387,2.2432,2.253,2.2635,2.2658,2.2679,2.2756,2.2783,2.2451,2.2451,2.2451,0,2.1027,2.1207,2.1234,2.1366,2.1439,2.1429,2.1571,2.164,2.1783,2.1834,2.1793,2.2052,2.2125,2.2329,2.2381,2.2435,2.2475,2.2421,2.2652,2.2673,2.2693,2.2767,2.2796,2.2456,2.2455,2.2455,2.2454,0,2.1291,2.1416,2.1515,2.1649,2.1732,2.1868,2.1918,2.1999,2.2008,2.2052,2.2224,2.231,2.2444,2.2493,2.2505,2.2699,2.2675,2.2643,2.2573,2.2726,2.2796,2.2825,2.2463,2.2461,2.246,2.2458,0,0,2.1519,2.1663,2.1699,2.1759,2.1877,2.1976,2.2111,2.2238,2.2308,2.2405,2.2521,2.2695,2.2665,2.2741,2.2761,2.2853,2.3017,2.281,2.2813,2.2847,2.3238,2.3262,2.3295,2.301,2.3015,2.302,2.3229,0,2.1718,2.1956,2.1983,2.2196,2.2312,2.2304,2.2422,2.2508,2.2552,2.2659,2.2709,2.2832,2.2783,2.2829,2.2919,2.2978,2.3096,2.2963,2.3121,2.3126,2.3096,2.3331,2.3359,2.3552,2.3256,2.3261,2.3264,0,2.1985,2.2086,2.231,2.2409,2.2459,2.2565,2.2683,2.2785,2.2882,2.2908,2.2991,2.2998,2.3139,2.306,2.3256,2.3165,2.3231,2.3269,2.3277,2.3296,2.3207,2.3358,2.3614,2.3644,2.3308,2.3304,2.3301,0,2.213,2.2323,2.2481,2.2533,2.2653,2.2727,2.2781,2.2873,2.2947,2.3051,2.31,2.322,2.3286,2.3379,2.3419,2.3358,2.3614,2.3538,2.3641,2.3641,2.3699,2.3695,2.3971,2.3737,2.3736,2.3736,2.3735,0,2.2352,2.249,2.2548,2.2646,2.2799,2.2829,2.2981,2.3032,2.3113,2.3222,2.3222,2.3324,2.3369,2.3479,2.3511,2.3669,2.3699,2.3725,2.3733,2.3727,2.3724,2.3773,2.3762,2.3743,2.3742,2.374,2.3739,0,2.2542,2.2586,2.2758,2.2856,2.2884,2.2993,2.3078,2.3174,2.3215,2.3353,2.3387,2.3454,2.3583,2.3631,2.3789,2.381,2.3994,2.3989,2.3961,2.3963,2.4065,2.4055,2.4384,2.4429,2.4163,2.4165,2.4167,0,2.2682,2.2787,2.2895,2.2966,2.3022,2.3138,2.3212,2.3245,2.3324,2.344,2.3522,2.365,2.3754,2.3961,2.4025,2.4146,2.4145,2.4252,2.4164,2.4155,2.4149,2.4144,2.4155,2.427,2.4272,2.4275,2.4276,0,2.2927,2.2942,2.3049,2.3163,2.3252,2.3344,2.3433,2.3492,2.3539,2.3627,2.3757,2.3838,2.3997,2.4125,2.4248,2.4305,2.43,2.4303,2.4334,2.433,2.431,2.4324,2.4008,2.4296,2.4294,2.4293,2.4292,2.4291,2.3098,2.3191,2.328,2.3399,2.3469,2.3552,2.3646,2.3697,2.3806,2.3937,2.3949,2.409,2.4183,2.4348,2.441,2.4522,2.4493,2.4538,2.4549,2.456,2.4569,2.4289,2.4544,2.4544,2.4543,2.4543,2.4543,0,2.3344,2.34,2.3509,2.3632,2.3725,2.3707,2.3805,2.3885,2.4008,2.4094,2.4195,2.4345,2.4468,2.454,2.4663,2.4739,2.4739,2.477,2.4767,2.478,2.4586,2.4548,2.4768,2.4768,2.4767,2.4767,2.4767,2.4767,2.3483,2.3639,2.3665,2.3855,2.3911,2.4047,2.4104,2.4181,2.425,2.4416,2.4517,2.4562,2.4643,2.4771,2.4884,2.4902,2.4948,2.4982,2.4998,2.4817,2.4794,2.4772,2.4736,2.4992,2.4992,2.5183,2.5185,2.5186]}]]